| time (UTC) | temp F | wind direction | speed knots | gust knots | rain 1hr in | rain 24hr in | rain mn in | humidity % | barometer mb |
| 20260508092645 | 34 | 177 | 0.0 | 0.0 | 0.00 | 0.00 | 0.00 | 99 | 1017.5 |
| 20260508092144 | 35 | 177 | 0.0 | 0.0 | 0.00 | 0.00 | 0.00 | 99 | 1017.4 |
| 20260508091641 | 35 | 178 | 0.0 | 0.0 | 0.00 | 0.00 | 0.00 | 99 | 1017.2 |
| 20260508091137 | 34 | 176 | 0.0 | 0.0 | 0.00 | 0.00 | 0.00 | 99 | 1017.3 |
| 20260508090635 | 35 | 189 | 0.0 | 0.0 | 0.00 | 0.00 | 0.00 | 99 | 1017.3 |
| 20260508090132 | 35 | 192 | 0.0 | 0.0 | 0.00 | 0.00 | 0.00 | 99 | 1017.2 |
| 20260508085628 | 34 | 194 | 0.0 | 0.0 | 0.00 | 0.00 | 0.00 | 99 | 1017.2 |
| 20260508085126 | 34 | 192 | 0.0 | 0.0 | 0.00 | 0.00 | 0.00 | 99 | 1017.3 |
| 20260508084622 | 35 | 192 | 0.0 | 0.0 | 0.00 | 0.00 | 0.00 | 99 | 1017.6 |
| 20260508084120 | 34 | 192 | 0.0 | 0.0 | 0.00 | 0.00 | 0.00 | 99 | 1017.5 |
| 20260508083616 | 35 | 192 | 0.0 | 0.0 | 0.00 | 0.00 | 0.00 | 99 | 1017.3 |
| 20260508083114 | 35 | 192 | 0.0 | 0.0 | 0.00 | 0.00 | 0.00 | 99 | 1017.2 |
| 20260508082609 | 35 | 192 | 0.0 | 0.0 | 0.00 | 0.00 | 0.00 | 99 | 1017.2 |
| 20260508082107 | 35 | 193 | 0.0 | 0.0 | 0.00 | 0.00 | 0.00 | 99 | 1017.0 |
| 20260508081604 | 35 | 194 | 0.0 | 0.0 | 0.00 | 0.00 | 0.00 | 99 | 1017.3 |
| 20260508081100 | 35 | 198 | 0.0 | 0.0 | 0.00 | 0.00 | 0.00 | 99 | 1017.0 |
| 20260508080558 | 35 | 197 | 0.0 | 0.0 | 0.00 | 0.00 | 0.00 | 99 | 1017.1 |
| 20260508080055 | 35 | 196 | 0.0 | 0.0 | 0.00 | 0.00 | 0.00 | 99 | 1017.1 |
| 20260508075552 | 35 | 196 | 0.0 | 0.0 | 0.00 | 0.00 | 0.00 | 99 | 1017.2 |
| 20260508075049 | 35 | 196 | 0.0 | 0.0 | 0.00 | 0.00 | 0.00 | 99 | 1017.1 |
| 20260508074547 | 35 | 196 | 0.0 | 0.0 | 0.00 | 0.00 | 0.00 | 99 | 1017.3 |
| 20260508074043 | 35 | 196 | 0.0 | 0.0 | 0.00 | 0.00 | 0.00 | 99 | 1017.3 |
| 20260508073541 | 35 | 196 | 0.0 | 0.0 | 0.00 | 0.00 | 0.00 | 99 | 1017.1 |
| 20260508073038 | 35 | 195 | 0.0 | 0.0 | 0.00 | 0.00 | 0.00 | 99 | 1017.2 |
| 20260508072534 | 35 | 195 | 0.0 | 0.0 | 0.00 | 0.00 | 0.00 | 99 | 1017.1 |
| 20260508072031 | 35 | 195 | 0.0 | 0.0 | 0.00 | 0.00 | 0.00 | 99 | 1017.1 |
| 20260508071529 | 35 | 195 | 0.0 | 0.0 | 0.00 | 0.00 | 0.00 | 99 | 1017.1 |
| 20260508071026 | 35 | 191 | 0.0 | 0.0 | 0.00 | 0.00 | 0.00 | 99 | 1017.2 |
| 20260508070524 | 35 | 193 | 0.0 | 0.0 | 0.00 | 0.00 | 0.00 | 99 | 1017.3 |
| 20260508070022 | 35 | 193 | 0.0 | 0.0 | 0.00 | 0.00 | 0.00 | 99 | 1017.4 |
| 20260508065520 | 36 | 193 | 0.0 | 0.0 | 0.00 | 0.00 | 0.00 | 99 | 1017.4 |
| 20260508065018 | 36 | 194 | 0.0 | 0.0 | 0.00 | 0.00 | 0.00 | 99 | 1017.2 |
| 20260508064515 | 35 | 193 | 0.0 | 0.0 | 0.00 | 0.00 | 0.00 | 99 | 1017.4 |
| 20260508064013 | 35 | 193 | 0.0 | 0.0 | 0.00 | 0.00 | 0.00 | 99 | 1017.4 |
| 20260508063510 | 35 | 193 | 0.0 | 0.0 | 0.00 | 0.00 | 0.00 | 99 | 1017.5 |
| 20260508063007 | 36 | 193 | 0.0 | 0.0 | 0.00 | 0.00 | 0.00 | 99 | 1017.3 |
| 20260508062505 | 36 | 193 | 0.0 | 0.0 | 0.00 | 0.00 | 0.00 | 99 | 1017.3 |
| 20260508062001 | 36 | 192 | 0.0 | 0.0 | 0.00 | 0.00 | 0.00 | 99 | 1017.4 |
| 20260508061500 | 36 | 190 | 0.0 | 0.0 | 0.00 | 0.00 | 0.00 | 99 | 1017.0 |
| 20260508060955 | 36 | 195 | 0.0 | 0.0 | 0.00 | 0.00 | 0.00 | 99 | 1017.3 |
| 20260508060453 | 36 | 191 | 0.0 | 0.0 | 0.00 | 0.00 | 0.00 | 99 | 1017.3 |
| 20260508055949 | 36 | 192 | 0.0 | 0.0 | 0.00 | 0.00 | 0.00 | 99 | 1017.3 |
| 20260508055446 | 36 | 196 | 0.0 | 0.0 | 0.00 | 0.00 | 0.00 | 99 | 1017.5 |
| 20260508054942 | 36 | 201 | 0.0 | 0.0 | 0.00 | 0.00 | 0.00 | 98 | 1017.3 |
| 20260508054439 | 36 | 201 | 0.0 | 0.0 | 0.00 | 0.00 | 0.00 | 98 | 1017.4 |
| 20260508053936 | 36 | 201 | 0.0 | 0.0 | 0.00 | 0.00 | 0.00 | 98 | 1017.4 |
| 20260508053433 | 36 | 201 | 0.0 | 0.0 | 0.00 | 0.00 | 0.00 | 98 | 1017.4 |
| 20260508052931 | 37 | 201 | 0.0 | 0.0 | 0.00 | 0.00 | 0.00 | 98 | 1017.4 |
| 20260508052428 | 37 | 201 | 0.0 | 0.0 | 0.00 | 0.00 | 0.00 | 98 | 1017.6 |
| 20260508051924 | 37 | 201 | 0.0 | 0.0 | 0.00 | 0.00 | 0.00 | 98 | 1017.4 |
| 20260508051420 | 37 | 201 | 0.0 | 0.0 | 0.00 | 0.00 | 0.00 | 98 | 1017.5 |
| 20260508050916 | 37 | 201 | 0.0 | 0.0 | 0.00 | 0.00 | 0.00 | 98 | 1017.5 |
| 20260508050413 | 37 | 201 | 0.0 | 0.0 | 0.00 | 0.00 | 0.00 | 98 | 1017.4 |
| 20260508045909 | 37 | 203 | 0.0 | 0.0 | 0.00 | 0.00 | 0.00 | 98 | 1017.6 |
| 20260508045407 | 37 | 211 | 0.0 | 0.0 | 0.00 | 0.00 | 0.00 | 98 | 1017.7 |
| 20260508044904 | 37 | 211 | 0.0 | 0.0 | 0.00 | 0.00 | 0.00 | 98 | 1017.6 |
| 20260508044401 | 37 | 211 | 0.0 | 0.0 | 0.00 | 0.00 | 0.00 | 98 | 1017.5 |
| 20260508043856 | 38 | 211 | 0.0 | 0.0 | 0.00 | 0.00 | 0.00 | 98 | 1017.5 |
| 20260508043354 | 38 | 212 | 0.0 | 0.0 | 0.00 | 0.00 | 0.00 | 97 | 1017.5 |
| 20260508042850 | 38 | 215 | 0.0 | 0.0 | 0.00 | 0.00 | 0.00 | 97 | 1017.5 |
| 20260508042348 | 38 | 215 | 0.0 | 0.0 | 0.00 | 0.00 | 0.00 | 97 | 1017.3 |
| 20260508041844 | 38 | 215 | 0.0 | 0.0 | 0.00 | 0.00 | 0.00 | 97 | 1017.4 |
| 20260508041341 | 38 | 215 | 0.0 | 0.0 | 0.00 | 0.00 | 0.00 | 97 | 1017.4 |
| 20260508040838 | 38 | 215 | 0.0 | 0.0 | 0.00 | 0.00 | 0.00 | 97 | 1017.5 |
| 20260508040335 | 38 | 215 | 0.0 | 0.0 | 0.00 | 0.00 | 0.00 | 97 | 1017.4 |
| 20260508035832 | 38 | 215 | 0.0 | 0.0 | 0.00 | 0.00 | 0.00 | 96 | 1017.4 |
| 20260508035330 | 38 | 216 | 0.0 | 0.0 | 0.00 | 0.00 | 0.00 | 96 | 1017.3 |
| 20260508034826 | 38 | 219 | 0.0 | 0.0 | 0.00 | 0.00 | 0.00 | 96 | 1017.1 |
| 20260508034324 | 39 | 219 | 0.0 | 0.0 | 0.00 | 0.00 | 0.00 | 96 | 1017.3 |
| 20260508033820 | 39 | 219 | 0.0 | 0.0 | 0.00 | 0.00 | 0.00 | 96 | 1017.3 |
| 20260508033319 | 39 | 219 | 0.0 | 0.0 | 0.00 | 0.00 | 0.00 | 96 | 1017.3 |
| 20260508032816 | 39 | 219 | 0.0 | 0.0 | 0.00 | 0.00 | 0.00 | 96 | 1017.4 |
| 20260508032313 | 39 | 219 | 0.0 | 0.0 | 0.00 | 0.00 | 0.00 | 96 | 1017.3 |
| 20260508031809 | 39 | 219 | 0.0 | 0.0 | 0.00 | 0.00 | 0.00 | 96 | 1017.3 |
| 20260508031306 | 39 | 219 | 0.0 | 0.0 | 0.00 | 0.00 | 0.00 | 95 | 1017.4 |
| 20260508030802 | 40 | 219 | 0.0 | 0.0 | 0.00 | 0.00 | 0.00 | 95 | 1017.2 |
| 20260508030300 | 40 | 219 | 0.0 | 0.0 | 0.00 | 0.00 | 0.00 | 95 | 1017.3 |
| 20260508025756 | 40 | 219 | 0.0 | 0.0 | 0.00 | 0.00 | 0.00 | 95 | 1017.1 |
| 20260508025254 | 40 | 221 | 0.0 | 0.0 | 0.00 | 0.00 | 0.00 | 94 | 1016.8 |
| 20260508024749 | 40 | 221 | 0.0 | 0.0 | 0.00 | 0.00 | 0.00 | 94 | 1017.0 |
| 20260508024246 | 40 | 220 | 0.0 | 0.0 | 0.00 | 0.00 | 0.00 | 94 | 1017.0 |
| 20260508023743 | 41 | 220 | 0.0 | 0.0 | 0.00 | 0.00 | 0.00 | 94 | 1017.0 |
| 20260508023241 | 41 | 220 | 0.0 | 0.0 | 0.00 | 0.00 | 0.00 | 93 | 1016.8 |
| 20260508022736 | 41 | 220 | 0.0 | 0.0 | 0.00 | 0.00 | 0.00 | 93 | 1016.8 |
| 20260508022233 | 41 | 220 | 0.0 | 0.0 | 0.00 | 0.00 | 0.00 | 92 | 1016.8 |
| 20260508021730 | 41 | 220 | 0.0 | 0.0 | 0.00 | 0.00 | 0.00 | 92 | 1016.3 |
| 20260508021225 | 41 | 220 | 0.0 | 0.0 | 0.00 | 0.00 | 0.00 | 92 | 1016.6 |
| 20260508020723 | 42 | 220 | 0.0 | 0.0 | 0.00 | 0.00 | 0.00 | 92 | 1016.4 |
| 20260508020220 | 42 | 220 | 0.0 | 0.0 | 0.00 | 0.00 | 0.00 | 91 | 1016.3 |
| 20260508015717 | 42 | 220 | 0.0 | 0.0 | 0.00 | 0.00 | 0.00 | 90 | 1016.3 |
| 20260508015214 | 42 | 220 | 0.0 | 0.0 | 0.00 | 0.00 | 0.00 | 90 | 1016.2 |
| 20260508014711 | 43 | 220 | 0.0 | 0.0 | 0.00 | 0.00 | 0.00 | 88 | 1016.1 |
| 20260508014208 | 43 | 220 | 0.0 | 0.0 | 0.00 | 0.00 | 0.00 | 88 | 1016.1 |
| 20260508013703 | 43 | 221 | 0.0 | 0.0 | 0.00 | 0.00 | 0.00 | 87 | 1015.9 |
| 20260508013200 | 44 | 221 | 0.0 | 0.0 | 0.00 | 0.00 | 0.00 | 87 | 1016.1 |
| 20260508012658 | 44 | 221 | 0.0 | 0.0 | 0.00 | 0.00 | 0.00 | 86 | 1015.8 |
| 20260508012154 | 44 | 221 | 0.0 | 0.0 | 0.00 | 0.00 | 0.00 | 85 | 1015.7 |
| 20260508011653 | 44 | 221 | 0.0 | 0.0 | 0.00 | 0.00 | 0.00 | 85 | 1015.9 |
| 20260508011150 | 45 | 221 | 0.0 | 0.0 | 0.00 | 0.00 | 0.00 | 85 | 1015.7 |
| 20260508010647 | 45 | 221 | 0.0 | 0.0 | 0.00 | 0.00 | 0.00 | 83 | 1015.6 |
| 20260508010145 | 46 | 221 | 0.0 | 0.0 | 0.00 | 0.00 | 0.00 | 82 | 1015.6 |
| 20260508005642 | 47 | 219 | 0.0 | 0.0 | 0.00 | 0.00 | 0.00 | 79 | 1015.6 |
| 20260508005138 | 47 | 223 | 0.0 | 0.0 | 0.00 | 0.00 | 0.00 | 78 | 1015.3 |
| 20260508004634 | 47 | 228 | 0.0 | 0.0 | 0.00 | 0.00 | 0.00 | 78 | 1015.4 |
| 20260508004130 | 48 | 211 | 0.0 | 0.0 | 0.00 | 0.00 | 0.00 | 76 | 1015.3 |
| 20260508003627 | 49 | 203 | 0.0 | 0.0 | 0.00 | 0.00 | 0.00 | 74 | 1015.3 |
| 20260508003125 | 49 | 205 | 0.0 | 0.9 | 0.00 | 0.00 | 0.00 | 71 | 1015.1 |
| 20260508002621 | 50 | 226 | 0.0 | 0.0 | 0.00 | 0.00 | 0.00 | 70 | 1015.0 |
| 20260508002119 | 51 | 233 | 0.0 | 0.0 | 0.00 | 0.00 | 0.00 | 67 | 1015.1 |
| 20260508001614 | 51 | 229 | 0.0 | 0.0 | 0.00 | 0.00 | 0.00 | 66 | 1014.9 |
| 20260508001110 | 52 | 227 | 0.0 | 0.0 | 0.00 | 0.00 | 0.00 | 58 | 1014.9 |
| 20260508000606 | 53 | 208 | 0.0 | 0.9 | 0.00 | 0.00 | 0.00 | 56 | 1014.8 |
| 20260508000104 | 54 | 213 | 0.0 | 1.7 | 0.00 | 0.00 | 0.00 | 55 | 1014.8 |
| 20260507235600 | 56 | 212 | 0.0 | 1.7 | 0.00 | 0.00 | 0.00 | 46 | 1014.8 |
| 20260507235058 | 56 | 278 | 2.6 | 2.6 | 0.00 | 0.00 | 0.00 | 50 | 1014.7 |
| 20260507234554 | 56 | 77 | 0.0 | 1.7 | 0.00 | 0.00 | 0.00 | 55 | 1014.7 |
| 20260507234050 | 57 | 168 | 0.0 | 0.9 | 0.00 | 0.00 | 0.00 | 42 | 1014.7 |
| 20260507233547 | 56 | 237 | 0.9 | 2.6 | 0.00 | 0.00 | 0.00 | 42 | 1014.5 |
| 20260507233046 | 57 | 280 | 0.9 | 0.9 | 0.00 | 0.00 | 0.00 | 50 | 1014.5 |
| 20260507232542 | 58 | 131 | 0.0 | 2.6 | 0.00 | 0.00 | 0.00 | 41 | 1014.6 |
| 20260507232039 | 58 | 52 | 0.9 | 0.9 | 0.00 | 0.00 | 0.00 | 39 | 1014.5 |
| 20260507231536 | 58 | 12 | 0.0 | 0.9 | 0.00 | 0.00 | 0.00 | 38 | 1014.4 |
| 20260507231033 | 59 | 239 | 0.0 | 0.0 | 0.00 | 0.00 | 0.00 | 40 | 1014.3 |
| 20260507230530 | 59 | 353 | 1.7 | 2.6 | 0.00 | 0.00 | 0.00 | 38 | 1014.3 |
| 20260507230026 | 59 | 53 | 1.7 | 1.7 | 0.00 | 0.00 | 0.00 | 38 | 1014.3 |
| 20260507225521 | 60 | 193 | 0.9 | 3.5 | 0.00 | 0.00 | 0.00 | 41 | 1014.3 |
| 20260507225018 | 60 | 100 | 0.0 | 1.7 | 0.00 | 0.00 | 0.00 | 38 | 1014.2 |
| 20260507224513 | 61 | 235 | 1.7 | 1.7 | 0.00 | 0.00 | 0.00 | 38 | 1014.3 |
| 20260507224010 | 61 | 69 | 5.2 | 9.6 | 0.00 | 0.00 | 0.00 | 37 | 1014.1 |
| 20260507223506 | 62 | 336 | 0.0 | 2.6 | 0.00 | 0.00 | 0.00 | 39 | 1014.1 |
| 20260507223004 | 61 | 36 | 1.7 | 2.6 | 0.00 | 0.00 | 0.00 | 41 | 1014.1 |
| 20260507222501 | 62 | 53 | 2.6 | 2.6 | 0.00 | 0.00 | 0.00 | 40 | 1014.1 |
| 20260507221957 | 60 | 63 | 0.9 | 5.2 | 0.00 | 0.00 | 0.00 | 42 | 1014.1 |
| 20260507221453 | 61 | 99 | 0.9 | 1.7 | 0.00 | 0.00 | 0.00 | 41 | 1014.3 |
| 20260507220950 | 60 | 52 | 0.9 | 0.9 | 0.00 | 0.00 | 0.00 | 43 | 1014.1 |
| 20260507220448 | 60 | 105 | 0.9 | 3.5 | 0.00 | 0.00 | 0.00 | 41 | 1014.1 |
| 20260507215944 | 61 | 169 | 2.6 | 3.5 | 0.00 | 0.00 | 0.00 | 41 | 1013.8 |
| 20260507215441 | 61 | 117 | 0.0 | 1.7 | 0.00 | 0.00 | 0.00 | 40 | 1014.1 |
| 20260507214938 | 62 | 351 | 0.0 | 3.5 | 0.00 | 0.00 | 0.00 | 40 | 1014.0 |
| 20260507214436 | 63 | 177 | 0.9 | 3.5 | 0.00 | 0.00 | 0.00 | 38 | 1013.8 |
| 20260507213931 | 64 | 8 | 5.2 | 7.8 | 0.00 | 0.00 | 0.00 | 40 | 1013.7 |
| 20260507213428 | 64 | 311 | 0.9 | 1.7 | 0.00 | 0.00 | 0.00 | 38 | 1013.7 |
| 20260507212925 | 63 | 191 | 1.7 | 1.7 | 0.00 | 0.00 | 0.00 | 47 | 1013.7 |
| 20260507212420 | 62 | 341 | 1.7 | 2.6 | 0.00 | 0.00 | 0.00 | 44 | 1013.6 |
| 20260507211918 | 60 | 127 | 0.0 | 1.7 | 0.00 | 0.00 | 0.00 | 44 | 1013.4 |
| 20260507211414 | 61 | 41 | 0.0 | 7.0 | 0.00 | 0.00 | 0.00 | 44 | 1013.4 |
| 20260507210911 | 63 | 67 | 0.9 | 5.2 | 0.00 | 0.00 | 0.00 | 40 | 1013.4 |
| 20260507210408 | 63 | 3 | 1.7 | 3.5 | 0.00 | 0.00 | 0.00 | 41 | 1013.5 |
| 20260507205904 | 65 | 203 | 3.5 | 3.5 | 0.00 | 0.00 | 0.00 | 40 | 1013.4 |
| 20260507205402 | 63 | 57 | 0.9 | 1.7 | 0.00 | 0.00 | 0.00 | 39 | 1013.4 |
| 20260507204858 | 63 | 12 | 1.7 | 5.2 | 0.00 | 0.00 | 0.00 | 43 | 1013.4 |
| 20260507204355 | 62 | 76 | 4.3 | 9.6 | 0.00 | 0.00 | 0.00 | 40 | 1013.2 |
| 20260507203852 | 63 | 59 | 0.9 | 1.7 | 0.00 | 0.00 | 0.00 | 43 | 1013.4 |
| 20260507203350 | 61 | 112 | 1.7 | 5.2 | 0.00 | 0.00 | 0.00 | 40 | 1013.3 |
| 20260507202846 | 61 | 70 | 1.7 | 3.5 | 0.00 | 0.00 | 0.00 | 44 | 1013.3 |
| 20260507202343 | 62 | 32 | 0.0 | 1.7 | 0.00 | 0.00 | 0.00 | 45 | 1013.6 |
| 20260507201838 | 62 | 201 | 2.6 | 5.2 | 0.00 | 0.00 | 0.00 | 41 | 1013.4 |
| 20260507201334 | 63 | 130 | 0.0 | 0.9 | 0.00 | 0.00 | 0.00 | 38 | 1013.4 |
| 20260507200830 | 63 | 88 | 2.6 | 5.2 | 0.00 | 0.00 | 0.00 | 40 | 1013.3 |
| 20260507200327 | 63 | 147 | 1.7 | 2.6 | 0.00 | 0.00 | 0.00 | 39 | 1013.4 |
| 20260507195823 | 63 | 123 | 0.0 | 6.1 | 0.00 | 0.00 | 0.00 | 41 | 1013.8 |
| 20260507195320 | 63 | 58 | 0.9 | 3.5 | 0.00 | 0.00 | 0.00 | 49 | 1013.7 |
| 20260507194817 | 61 | 3 | 0.0 | 2.6 | 0.00 | 0.00 | 0.00 | 46 | 1013.7 |
| 20260507194313 | 60 | 139 | 0.9 | 7.0 | 0.00 | 0.00 | 0.00 | 44 | 1013.7 |
| 20260507193810 | 61 | 172 | 0.9 | 5.2 | 0.00 | 0.00 | 0.00 | 46 | 1013.8 |
| 20260507193307 | 60 | 58 | 4.3 | 7.0 | 0.00 | 0.00 | 0.00 | 44 | 1013.8 |
| 20260507192803 | 62 | 74 | 2.6 | 3.5 | 0.00 | 0.00 | 0.00 | 45 | 1014.0 |
| 20260507192300 | 61 | 67 | 4.3 | 6.1 | 0.00 | 0.00 | 0.00 | 43 | 1014.0 |
| 20260507191756 | 62 | 76 | 1.7 | 5.2 | 0.00 | 0.00 | 0.00 | 44 | 1014.1 |
| 20260507191253 | 63 | 143 | 0.0 | 5.2 | 0.00 | 0.00 | 0.00 | 44 | 1014.3 |
| 20260507190749 | 63 | 136 | 0.9 | 3.5 | 0.00 | 0.00 | 0.00 | 44 | 1014.1 |
| 20260507190248 | 62 | 178 | 0.0 | 0.9 | 0.00 | 0.00 | 0.00 | 47 | 1014.1 |
| 20260507185746 | 61 | 212 | 1.7 | 11.3 | 0.00 | 0.00 | 0.00 | 45 | 1014.4 |
| 20260507185243 | 61 | 54 | 2.6 | 6.1 | 0.00 | 0.00 | 0.00 | 49 | 1014.3 |
| 20260507184741 | 61 | 77 | 1.7 | 6.1 | 0.00 | 0.00 | 0.00 | 47 | 1014.4 |
| 20260507184238 | 60 | 239 | 1.7 | 5.2 | 0.00 | 0.00 | 0.00 | 46 | 1014.3 |
| 20260507183735 | 60 | 54 | 2.6 | 7.0 | 0.00 | 0.00 | 0.00 | 47 | 1014.2 |
| 20260507183232 | 59 | 103 | 0.9 | 5.2 | 0.00 | 0.00 | 0.00 | 47 | 1014.2 |
| 20260507182729 | 60 | 144 | 1.7 | 6.1 | 0.00 | 0.00 | 0.00 | 48 | 1014.0 |
| 20260507182224 | 61 | 58 | 2.6 | 6.1 | 0.00 | 0.00 | 0.00 | 43 | 1014.2 |
| 20260507181721 | 61 | 52 | 0.9 | 3.5 | 0.00 | 0.00 | 0.00 | 50 | 1014.1 |
| 20260507181218 | 59 | 145 | 0.9 | 3.5 | 0.00 | 0.00 | 0.00 | 50 | 1014.2 |
| 20260507180714 | 59 | 75 | 0.0 | 1.7 | 0.00 | 0.00 | 0.00 | 51 | 1014.2 |
| 20260507180211 | 59 | 13 | 0.9 | 1.7 | 0.00 | 0.00 | 0.00 | 52 | 1014.3 |
| 20260507175707 | 59 | 63 | 0.9 | 1.7 | 0.00 | 0.00 | 0.00 | 49 | 1014.1 |
| 20260507175204 | 59 | 100 | 0.9 | 7.0 | 0.00 | 0.00 | 0.00 | 49 | 1014.3 |
| 20260507174701 | 59 | 82 | 0.9 | 2.6 | 0.00 | 0.00 | 0.00 | 55 | 1014.3 |
| 20260507174159 | 59 | 136 | 0.9 | 0.9 | 0.00 | 0.00 | 0.00 | 45 | 1014.5 |
| 20260507173656 | 60 | 42 | 1.7 | 7.0 | 0.00 | 0.00 | 0.00 | 50 | 1014.7 |
| 20260507173153 | 60 | 92 | 0.0 | 1.7 | 0.00 | 0.00 | 0.00 | 49 | 1014.6 |
| 20260507172650 | 59 | 323 | 2.6 | 7.8 | 0.00 | 0.00 | 0.00 | 50 | 1014.6 |
| 20260507172147 | 59 | 114 | 1.7 | 6.1 | 0.00 | 0.00 | 0.00 | 49 | 1014.5 |
| 20260507171647 | 60 | 118 | 0.9 | 1.7 | 0.00 | 0.00 | 0.00 | 53 | 1014.6 |
| 20260507171144 | 60 | 83 | 0.0 | 1.7 | 0.00 | 0.00 | 0.00 | 47 | 1014.4 |
| 20260507170641 | 59 | 78 | 0.0 | 5.2 | 0.00 | 0.00 | 0.00 | 51 | 1014.9 |
| 20260507170138 | 59 | 42 | 3.5 | 3.5 | 0.00 | 0.00 | 0.00 | 53 | 1014.6 |
| 20260507165634 | 60 | 38 | 4.3 | 6.1 | 0.00 | 0.00 | 0.00 | 49 | 1014.9 |
| 20260507165130 | 60 | 205 | 1.7 | 5.2 | 0.00 | 0.00 | 0.00 | 50 | 1014.7 |
| 20260507164626 | 59 | 251 | 0.0 | 1.7 | 0.00 | 0.00 | 0.00 | 51 | 1014.9 |
| 20260507164123 | 58 | 116 | 0.0 | 1.7 | 0.00 | 0.00 | 0.00 | 52 | 1015.1 |
| 20260507163620 | 58 | 62 | 0.0 | 2.6 | 0.00 | 0.00 | 0.00 | 53 | 1015.1 |
| 20260507163119 | 60 | 61 | 0.9 | 2.6 | 0.00 | 0.00 | 0.00 | 56 | 1015.0 |
| 20260507162614 | 58 | 353 | 0.0 | 3.5 | 0.00 | 0.00 | 0.00 | 50 | 1015.1 |
| 20260507162111 | 58 | 110 | 2.6 | 7.0 | 0.00 | 0.00 | 0.00 | 54 | 1015.3 |
| 20260507161607 | 57 | 130 | 0.0 | 0.0 | 0.00 | 0.00 | 0.00 | 62 | 1015.2 |
| 20260507161103 | 57 | 53 | 1.7 | 2.6 | 0.00 | 0.00 | 0.00 | 55 | 1015.3 |
| 20260507160600 | 57 | 32 | 5.2 | 6.1 | 0.00 | 0.00 | 0.00 | 53 | 1015.4 |
| 20260507160056 | 58 | 151 | 0.9 | 2.6 | 0.00 | 0.00 | 0.00 | 54 | 1015.2 |
| 20260507155551 | 59 | 96 | 0.0 | 1.7 | 0.00 | 0.00 | 0.00 | 55 | 1015.4 |
| 20260507155049 | 58 | 118 | 0.0 | 2.6 | 0.00 | 0.00 | 0.00 | 55 | 1015.4 |
| 20260507154545 | 58 | 28 | 0.9 | 2.6 | 0.00 | 0.00 | 0.00 | 55 | 1015.3 |
| 20260507154043 | 58 | 165 | 0.9 | 3.5 | 0.00 | 0.00 | 0.00 | 55 | 1015.4 |
| 20260507153539 | 57 | 149 | 0.0 | 0.9 | 0.00 | 0.00 | 0.00 | 57 | 1015.4 |
| 20260507153036 | 56 | 93 | 0.0 | 1.7 | 0.00 | 0.00 | 0.00 | 59 | 1015.4 |
| 20260507152531 | 59 | 17 | 4.3 | 6.1 | 0.00 | 0.00 | 0.00 | 52 | 1015.5 |
| 20260507152028 | 58 | 148 | 0.9 | 1.7 | 0.00 | 0.00 | 0.00 | 54 | 1015.6 |
| 20260507151524 | 56 | 62 | 0.0 | 1.7 | 0.00 | 0.00 | 0.00 | 62 | 1015.5 |
| 20260507151021 | 57 | 316 | 1.7 | 2.6 | 0.00 | 0.00 | 0.00 | 58 | 1015.5 |
| 20260507150518 | 57 | 89 | 0.0 | 3.5 | 0.00 | 0.00 | 0.00 | 63 | 1015.6 |
| 20260507150015 | 57 | 50 | 0.0 | 3.5 | 0.00 | 0.00 | 0.00 | 57 | 1015.6 |
| 20260507145510 | 56 | 202 | 0.9 | 1.7 | 0.00 | 0.00 | 0.00 | 61 | 1015.5 |
| 20260507145008 | 56 | 70 | 0.0 | 0.9 | 0.00 | 0.00 | 0.00 | 68 | 1015.6 |
| 20260507144504 | 56 | 334 | 3.5 | 3.5 | 0.00 | 0.00 | 0.00 | 62 | 1015.7 |
| 20260507144001 | 58 | 335 | 0.0 | 2.6 | 0.00 | 0.00 | 0.00 | 68 | 1015.7 |
| 20260507143459 | 57 | 56 | 1.7 | 2.6 | 0.00 | 0.00 | 0.00 | 70 | 1015.7 |
| 20260507142955 | 58 | 15 | 1.7 | 1.7 | 0.00 | 0.00 | 0.00 | 59 | 1015.4 |
| 20260507142451 | 56 | 241 | 0.9 | 6.1 | 0.00 | 0.00 | 0.00 | 60 | 1015.4 |
| 20260507141948 | 57 | 49 | 1.7 | 2.6 | 0.00 | 0.00 | 0.00 | 69 | 1015.9 |
| 20260507141444 | 56 | 67 | 1.7 | 2.6 | 0.00 | 0.00 | 0.00 | 71 | 1015.9 |
| 20260507140941 | 56 | 149 | 0.0 | 1.7 | 0.00 | 0.00 | 0.00 | 67 | 1015.9 |
| 20260507140438 | 57 | 79 | 0.0 | 2.6 | 0.00 | 0.00 | 0.00 | 67 | 1016.1 |
| 20260507135936 | 57 | 96 | 0.0 | 0.9 | 0.00 | 0.00 | 0.00 | 76 | 1016.1 |
| 20260507135432 | 56 | 87 | 0.0 | 1.7 | 0.00 | 0.00 | 0.00 | 76 | 1016.3 |
| 20260507134930 | 55 | 81 | 0.0 | 1.7 | 0.00 | 0.00 | 0.00 | 81 | 1016.2 |
| 20260507134426 | 56 | 66 | 0.9 | 0.9 | 0.00 | 0.00 | 0.00 | 82 | 1016.6 |
| 20260507133922 | 56 | 123 | 0.0 | 0.0 | 0.00 | 0.00 | 0.00 | 80 | 1016.4 |
| 20260507133418 | 55 | 123 | 0.0 | 0.0 | 0.00 | 0.00 | 0.00 | 86 | 1016.3 |
| 20260507132917 | 55 | 123 | 0.0 | 0.0 | 0.00 | 0.00 | 0.00 | 87 | 1016.4 |
| 20260507132413 | 52 | 123 | 0.0 | 0.0 | 0.00 | 0.00 | 0.00 | 92 | 1016.6 |
| 20260507131909 | 51 | 123 | 0.0 | 0.0 | 0.00 | 0.00 | 0.00 | 94 | 1016.6 |
| 20260507131406 | 51 | 123 | 0.0 | 0.0 | 0.00 | 0.00 | 0.00 | 95 | 1016.4 |
| 20260507130903 | 50 | 123 | 0.0 | 0.0 | 0.00 | 0.00 | 0.00 | 96 | 1016.7 |
| 20260507130400 | 51 | 123 | 0.0 | 0.0 | 0.00 | 0.00 | 0.00 | 97 | 1016.4 |
| 20260507125859 | 50 | 123 | 0.0 | 0.0 | 0.00 | 0.00 | 0.00 | 98 | 1016.7 |
| 20260507125356 | 50 | 123 | 0.0 | 0.0 | 0.00 | 0.00 | 0.00 | 98 | 1016.7 |
| 20260507124854 | 50 | 123 | 0.0 | 0.0 | 0.00 | 0.00 | 0.00 | 99 | 1016.4 |
| 20260507124349 | 50 | 127 | 0.0 | 0.0 | 0.00 | 0.00 | 0.00 | 99 | 1016.4 |
| 20260507123848 | 49 | 127 | 0.0 | 0.0 | 0.00 | 0.00 | 0.00 | 99 | 1016.4 |
| 20260507123345 | 49 | 127 | 0.0 | 0.0 | 0.00 | 0.00 | 0.00 | 99 | 1016.6 |
| 20260507122841 | 49 | 128 | 0.0 | 0.0 | 0.00 | 0.00 | 0.00 | 99 | 1016.3 |
| 20260507122337 | 49 | 128 | 0.0 | 0.0 | 0.00 | 0.00 | 0.00 | 99 | 1016.6 |
| 20260507121834 | 48 | 128 | 0.0 | 0.0 | 0.00 | 0.00 | 0.00 | 99 | 1016.6 |
| 20260507121329 | 48 | 128 | 0.0 | 0.0 | 0.00 | 0.00 | 0.00 | 99 | 1016.8 |
| 20260507120826 | 48 | 128 | 0.0 | 0.0 | 0.00 | 0.00 | 0.00 | 99 | 1016.7 |
| 20260507120322 | 48 | 128 | 0.0 | 0.0 | 0.00 | 0.00 | 0.00 | 99 | 1016.8 |
| 20260507115818 | 47 | 128 | 0.0 | 0.0 | 0.00 | 0.00 | 0.00 | 99 | 1016.6 |
| 20260507115314 | 47 | 128 | 0.0 | 0.0 | 0.00 | 0.00 | 0.00 | 99 | 1016.9 |
| 20260507114810 | 47 | 128 | 0.0 | 0.0 | 0.00 | 0.00 | 0.00 | 99 | 1016.7 |
| 20260507114308 | 47 | 128 | 0.0 | 0.0 | 0.00 | 0.00 | 0.00 | 99 | 1016.6 |
| 20260507113805 | 47 | 128 | 0.0 | 0.0 | 0.00 | 0.00 | 0.00 | 99 | 1016.6 |
| 20260507113302 | 47 | 128 | 0.0 | 0.0 | 0.00 | 0.00 | 0.00 | 99 | 1016.4 |
| 20260507112759 | 47 | 128 | 0.0 | 0.0 | 0.00 | 0.00 | 0.00 | 99 | 1016.2 |
| 20260507112256 | 46 | 128 | 0.0 | 0.0 | 0.00 | 0.00 | 0.00 | 99 | 1016.2 |
| 20260507111754 | 46 | 128 | 0.0 | 0.0 | 0.00 | 0.00 | 0.00 | 99 | 1016.1 |
| 20260507111250 | 46 | 128 | 0.0 | 0.0 | 0.00 | 0.00 | 0.00 | 99 | 1016.1 |
| 20260507110746 | 46 | 128 | 0.0 | 0.0 | 0.00 | 0.00 | 0.00 | 99 | 1016.1 |
| 20260507110243 | 46 | 128 | 0.0 | 0.0 | 0.00 | 0.00 | 0.00 | 99 | 1015.9 |
| 20260507105740 | 46 | 128 | 0.0 | 0.0 | 0.00 | 0.00 | 0.00 | 99 | 1016.0 |
| 20260507105236 | 46 | 128 | 0.0 | 0.0 | 0.00 | 0.00 | 0.00 | 99 | 1015.9 |
| 20260507104733 | 46 | 128 | 0.0 | 0.0 | 0.00 | 0.00 | 0.00 | 99 | 1015.6 |
| 20260507104230 | 46 | 128 | 0.0 | 0.0 | 0.00 | 0.00 | 0.00 | 99 | 1015.6 |
| 20260507103726 | 46 | 128 | 0.0 | 0.0 | 0.00 | 0.00 | 0.00 | 99 | 1015.9 |
| 20260507103222 | 46 | 128 | 0.0 | 0.0 | 0.00 | 0.00 | 0.00 | 99 | 1015.6 |
| 20260507102719 | 46 | 128 | 0.0 | 0.0 | 0.00 | 0.00 | 0.00 | 99 | 1015.4 |
| 20260507102215 | 46 | 128 | 0.0 | 0.0 | 0.00 | 0.00 | 0.00 | 99 | 1015.2 |
| 20260507101711 | 46 | 128 | 0.0 | 0.0 | 0.00 | 0.00 | 0.00 | 99 | 1015.7 |
| 20260507101207 | 46 | 128 | 0.0 | 0.0 | 0.00 | 0.00 | 0.00 | 99 | 1015.8 |
| 20260507100704 | 46 | 128 | 0.0 | 0.0 | 0.00 | 0.00 | 0.00 | 99 | 1015.7 |
| 20260507100203 | 46 | 128 | 0.0 | 0.0 | 0.00 | 0.00 | 0.00 | 99 | 1015.9 |
| 20260507095700 | 46 | 128 | 0.0 | 0.0 | 0.00 | 0.00 | 0.00 | 99 | 1015.8 |
| 20260507095156 | 46 | 125 | 0.0 | 0.0 | 0.00 | 0.00 | 0.00 | 99 | 1015.9 |
| 20260507094653 | 46 | 124 | 0.0 | 0.0 | 0.00 | 0.00 | 0.00 | 99 | 1015.9 |
| 20260507094150 | 46 | 124 | 0.0 | 0.0 | 0.00 | 0.00 | 0.00 | 99 | 1015.7 |
| 20260507093647 | 46 | 124 | 0.0 | 0.0 | 0.00 | 0.00 | 0.00 | 99 | 1015.9 |
| 20260507093146 | 46 | 124 | 0.0 | 0.0 | 0.00 | 0.00 | 0.00 | 99 | 1015.8 |